Location: Ottawa
(45.4170°N, 75.7000°W)
Time: 15:49:50
(UTC-04:00)

Daily predictions for brighter satellites

Satellite Brightness Start Highest point End
(mag) Time Altitude Azimuth Time Altitude Azimuth Time Altitude Azimuth
Cosmos 1954 Rocket 4.1 20:58:45 10° NNW 21:03:58 69° ENE 21:09:11 10° SSE
Okean 3 4.0 21:04:11 10° N 21:08:19 43° ENE 21:12:22 10° SSE
Cosmos 2056 Rocket 4.2 21:03:27 10° SSW 21:08:32 61° WNW 21:13:38 10° NNE
COS B Rocket 3.7 21:06:07 10° NNE 21:09:58 42° E 21:13:24 10° SSE
Cosmos 1833 Rocket 3.8 21:09:21 10° N 21:14:19 31° NE 21:19:15 10° ESE
CZ-4 DEB 3.5 21:12:13 10° S 21:15:18 52° W 21:18:26 10° NNW
Cosmos 1844 Rocket 3.1 21:14:40 10° SSW 21:20:19 71° WNW 21:25:58 10° NNE
Cosmos 1741 Rocket 4.4 21:15:24 10° NNW 21:20:28 48° ENE 21:25:30 10° SE
Cosmos 1825 2.3 21:17:08 10° S 21:20:52 55° E 21:24:38 10° NNE
Cosmos 1939 Rocket 2.8 21:17:16 10° SSE 21:21:10 82° ENE 21:25:09 10° N
Cosmos 1674 Rocket 4.5 21:17:55 10° NNW 21:22:15 51° W 21:26:31 10° S
Cosmos 2278 Rocket 2.2 21:16:52 10° S 21:22:27 63° ESE 21:28:04 10° NNE
SL-8 R/B 4.1 21:19:55 10° W 21:24:44 66° N 21:29:32 10° ENE
Cosmos 1844 3.9 21:22:50 10° SSW 21:28:38 82° WNW 21:34:28 10° NNE
ALOS 4.4 21:25:07 10° SSW 21:29:02 27° W 21:33:00 10° NW
Okean 2 Rocket 3.3 21:29:26 10° S 21:33:42 51° E 21:37:59 10° NNE
Envisat 3.1 21:33:13 10° S 21:38:18 80° WSW 21:43:25 10° NNW
Cosmos 2082 Rocket 2.5 21:34:37 10° NNW 21:40:15 56° ENE 21:44:56 15° SE
Cosmos 614 Rocket 4.0 21:35:36 10° NNW 21:40:41 65° ENE 21:45:01 14° SSE
PSLV R/B 3.3 21:38:39 15° SSE 21:40:54 53° ENE 21:43:49 10° N
Cosmos 1782 Rocket 3.5 21:37:04 10° S 21:41:30 76° E 21:46:00 10° NNE
Nadezhda 3 Rocket 4.3 21:36:47 10° NNW 21:43:08 72° W 21:49:28 10° S
CZ-4 SHROUD 3.3 21:41:47 16° SSE 21:44:07 56° ENE 21:47:09 10° N
Intercosmos 25 3.2 21:43:01 10° S 21:46:17 45° E 21:49:21 10° NNE
Cosmos 2218 Rocket 4.4 21:42:28 10° SSE 21:48:31 47° E 21:54:36 10° NNE
Cosmos 2084 3.9 21:45:00 10° SW 21:48:47 56° NW 21:52:34 10° NNE
ERS-1 Rocket 4.1 21:45:30 10° S 21:50:16 43° W 21:55:05 10° NNW
Cosmos 1812 4.3 21:47:22 10° NNE 21:50:21 21° ENE 21:52:04 16° ESE
Cosmos 1420 Rocket 3.9 21:45:40 10° SSW 21:50:53 76° ESE 21:56:07 10° NNE
COSMOS 2487 3.8 21:47:35 10° NW 21:50:58 38° WSW 21:54:20 10° S
APEX 3.6 21:47:26 10° SSW 21:51:26 64° ESE 21:56:44 10° NNE
DNEPR-1 R/B 4.1 21:46:24 10° NW 21:51:49 64° WSW 21:55:33 15° SSE
Cosmos 1975 Rocket 3.2 21:49:43 10° NNW 21:54:02 72° W 21:58:21 10° S
Meteor 1-14 Rocket 4.4 21:49:41 10° S 21:55:10 55° E 22:00:36 10° NNE
Cosmos 1140 Rocket 3.8 21:50:09 10° NNW 21:55:15 64° WSW 22:00:06 11° S
Cosmos 1727 Rocket 4.3 21:53:40 10° N 21:59:39 49° ENE 22:04:02 18° SE
Cosmos 2297 3.7 21:54:19 10° S 21:59:56 64° ESE 22:05:38 10° NNE
AVUM R/B 3.8 22:00:01 10° NNW 22:03:27 49° ENE 22:05:08 25° ESE
Terra 3.0 22:01:13 17° ESE 22:03:50 28° ENE 22:07:52 10° N
NOAA 11 4.3 22:01:14 17° SSE 22:05:26 66° ENE 22:10:54 10° N
CZ-4B R/B 3.6 22:00:38 10° NNE 22:05:27 51° E 22:09:18 15° S
Cosmos 1536 Rocket 3.9 22:02:33 10° N 22:06:57 51° ENE 22:09:31 23° SE
ISS -2.7 22:04:41 10° WSW 22:07:54 56° NNW 22:11:08 10° ENE
MetOp-B 4.3 22:04:33 12° S 22:09:28 73° WSW 22:14:51 10° NNW
Cosmos 1238 Rocket 4.4 22:09:34 10° NNW 22:12:31 28° W 22:15:52 10° SSW
H-2A R/B 2.7 22:11:12 21° SE 22:14:21 43° ENE 22:19:20 10° N
BREEZE-M DEB (TANK) 2.8 22:12:52 10° WNW 22:14:49 36° N 22:17:53 10° ENE
SPOT 5 3.9 22:14:10 10° S 22:19:18 50° W 22:24:32 10° NNW
Lacrosse 5 rocket 3.3 22:21:56 13° ENE 22:21:56 13° ENE 22:22:26 10° ENE
SL-8 Rocket 4.0 22:15:22 10° S 22:21:39 85° W 22:27:55 10° N
IGS 5A 4.3 22:25:17 27° ESE 22:26:47 36° ENE 22:30:38 10° N
USA 245 3.7 22:25:48 24° S 22:27:51 60° W 22:32:13 10° NNW
Cosmos 1242 Rocket 4.3 22:25:09 10° NNW 22:28:23 29° W 22:31:23 11° SSW
Gbstr 26 Del rocket 3.3 22:24:02 10° WNW 22:29:19 74° NNE 22:31:42 27° ESE
Cosmos 2369 Rocket 3.8 22:29:38 16° E 22:29:38 16° E 22:32:46 10° ENE
SPOT 1/Viking Rocket 3.8 22:26:12 19° S 22:29:59 68° WSW 22:35:12 10° NNW
ARGOS 3.2 22:27:48 21° S 22:31:30 76° WSW 22:36:53 10° NNW
Lacrosse 5 2.6 22:31:52 29° SE 22:31:56 29° SE 22:36:17 10° ENE
H-2A R/B 4.2 22:31:07 10° SW 22:34:21 21° W 22:37:33 10° NW
YAOGAN 6 4.0 22:33:23 16° SSW 22:35:41 32° W 22:38:54 10° NNW
Cosmos 1025 Rocket 4.5 22:34:00 10° NNE 22:37:34 23° ENE 22:38:34 21° E
CZ-4C R/B 3.3 22:38:45 39° SSE 22:40:11 78° ENE 22:44:23 10° N
Cosmos 2151 Rocket 3.8 22:36:41 16° SSW 22:40:12 72° W 22:44:45 10° N
USA 229 DEB 4.1 22:39:08 10° NW 22:46:07 59° WSW 22:50:15 26° S
USA 229 4.1 22:39:14 10° NW 22:46:13 60° WSW 22:50:21 26° S
Cosmos 1400 Rocket 4.1 22:49:30 25° E 22:49:30 25° E 22:52:46 10° NE
ASTEX 1 3.8 22:45:23 10° NNE 22:50:11 46° E 22:51:33 37° SE
Cosmos 1300 Rocket 3.6 22:49:12 41° SSE 22:50:34 63° E 22:55:00 10° NNE
Cosmos 1536 4.3 22:53:09 22° E 22:53:09 22° E 22:55:54 10° NE
Meteor 1-20 Rocket 4.1 22:50:14 24° S 22:53:46 87° E 22:59:19 10° NNE
Timation 1 Rocket 4.3 22:49:16 10° SSW 22:55:17 85° ESE 23:01:19 10° NNE
Okean 1 Rocket 3.1 22:56:16 45° SSE 22:57:27 64° E 23:01:53 10° NNE
Cosmos 1833 Rocket 3.3 22:53:05 10° NW 22:58:26 47° WSW 23:01:16 26° SSW
SAR-Lupe-2 3.6 23:03:13 59° E 23:03:24 60° ENE 23:06:57 10° N
NOSS 3-1 (A) 4.1 22:57:02 10° NW 23:04:28 69° NE 23:09:02 29° SE
Cosmos 2278 Rocket 4.5 23:02:23 10° WSW 23:06:59 25° NW 23:11:39 10° N
SL-8 R/B 4.0 23:02:50 10° WNW 23:07:38 66° N 23:10:22 25° E
CZ-4 R/B 4.4 23:03:31 10° N 23:08:05 54° WNW 23:11:24 18° SW
Cosmos 1331 Rocket 4.0 23:05:38 23° SSW 23:08:53 82° WNW 23:14:04 10° NNE
Cosmos 1503 Rocket 4.4 23:04:30 10° NNW 23:09:38 52° ENE 23:11:14 38° ESE
Okean 1-7 Rocket 3.5 23:07:35 10° N 23:12:06 83° W 23:13:10 52° S
Okean 1 3.9 23:09:37 10° NNW 23:13:36 52° W 23:14:37 41° SW
Cosmos 1110 Rocket 4.4 23:13:24 16° SW 23:17:34 62° WNW 23:22:44 10° NNE
DMSP B5D2-2 4.0 23:13:06 10° NNE 23:18:22 86° WNW 23:20:37 36° SSW
Cosmos 2082 Rocket 3.9 23:19:28 10° NW 23:23:55 24° WSW 23:26:48 16° SW
ATLAS 2AS CENTAUR R/B 3.8 23:17:35 10° NNW 23:25:24 46° NE 23:30:49 19° ESE
Cosmos 1812 4.2 23:22:53 10° NNW 23:26:17 30° W 23:27:16 26° WSW
Cosmos 1602 3.6 23:27:32 82° E 23:27:32 82° E 23:31:26 10° N
NOSS 3-1 (C) 4.0 23:26:05 10° NW 23:33:35 75° WSW 23:37:00 39° SSE
Meteor 2-4 Rocket 3.6 23:30:27 10° N 23:35:55 73° ENE 23:37:12 53° SE
Genesis I 3.2 23:37:08 79° W 23:37:15 81° NW 23:41:19 10° NE
USA 234 3.2 23:33:59 10° NE 23:40:28 62° SE 23:43:56 29° SSW
Terra 2.9 23:40:06 30° SW 23:41:27 36° W 23:45:51 10° NNW
BREEZE-M TANK 2.6 23:34:47 10° WNW 23:42:07 67° SSW 23:42:07 67° SSW
Cosmos 2239 Rocket 4.5 23:40:40 40° SSW 23:43:10 84° W 23:49:31 10° N
Cosmos 1354 Rocket 4.0 23:38:48 10° NNW 23:44:05 80° WSW 23:45:03 60° S
ISS -1.1 23:41:56 10° WNW 23:44:47 26° N 23:46:44 16° NE
Cosmos 1356 4.4 23:51:54 46° WNW 23:51:54 46° WNW 23:55:04 10° N
Cosmos 2084 Rocket 3.4 23:48:08 10° NW 23:51:39 71° NNW 23:51:39 71° NNW
Spot 2 4.5 23:48:45 10° N 23:52:58 55° WNW 23:53:38 48° WSW
H-2A R/B 3.6 23:51:51 22° SW 23:53:54 28° W 23:58:24 10° NW
Cosmos 1315 Rocket 3.1 23:55:13 62° NNE 23:55:13 62° NNE 23:58:34 10° NNE
